Regional Weather Roundup
Issued by NWS Midland/Odessa, TX

Home | Current Version | Previous Version | Text Only | Print | Product List | Glossary On
Versions: 1 2 3 4 5 6 7 8 9 10 11 12 13 14 15 16 17 18 19 20 21 22 23 24 25 26 27 28 29 30 31 32 33 34 35 36 37 38 39 40 41 42 43 44 45 46 47 48 49 50
421
ASUS44 KMAF 241910
RWRMAF
MIDLAND AREA WEATHER ROUNDUP
NATIONAL WEATHER SERVICE MIDLAND TX
200 PM CDT SUN SEP 24 2017

...IN SOUTHWEST TEXAS AND SOUTHEAST NEW MEXICO...

CITY           SKY/WX    TMP DP  RH WIND       PRES   REMARKS
ALPINE         PTSUNNY   81  61  50 SE14G22   29.99F
ANDREWS        CLOUDY    76  67  74 SE12G17   29.90F
ARTESIA        SUNNY     79  63  57 SE12      29.87F
BIG SPRING     CLOUDY    76  66  71 S10G17    29.92F
CARLSBAD       SUNNY     80  64  58 SE12G17   29.86F
DRYDEN           N/A     76  70  82 SE12      29.87S
FORT STOCKTON  NOT AVBL
GUAD PASS      NOT AVBL
HOBBS          MOSUNNY   79  61  53 W9        29.90F
MARFA          NOT AVBL
MIDLAND AIRPK  CLOUDY    79  67  65 S12G23    29.90F
MIDLAND INTL   CLOUDY    77  67  71 S17       29.89F
ODESSA         CLOUDY    77  67  71 S17G23    29.90F
PECOS          SUNNY     84  65  52 CALM      29.83F
PRESIDIO       FAIR      88  63  43 SE5       29.84F
SEMINOLE       CLOUDY    78  66  67 SE9       29.90F
SNYDER         CLOUDY    74  67  77 SE12      29.92F
WINK           PTSUNNY   81  66  60 S6        29.84F
$$
...OTHER STATIONS IN TEXAS...

CITY           SKY/WX    TMP DP  RH WIND       PRES   REMARKS
ABILENE        LGT RAIN  76  70  82 SE9       29.91F
AMARILLO       CLOUDY    71  66  84 S17       29.93R
AUSTIN         MOSUNNY   91  72  53 SE12      29.86F
BROWNSVILLE    SUNNY     91  72  53 SE14      29.79F
CORPUS CHRISTI PTSUNNY   91  72  53 SE18      29.81F
DALLAS FTW     MOSUNNY   90  66  45 S13       29.89F
DEL RIO        CLOUDY    84  70  62 SE10      29.82F
EL PASO        MOSUNNY   83  45  26 VRB5      29.88F
HOUSTON INT    MOSUNNY   91  70  49 SE13      29.88F
LUBBOCK        CLOUDY    74  66  76 S17       29.91F
SAN ANGELO     CLOUDY    81  61  50 S12       29.89F
SAN ANTONIO    PTSUNNY   86  68  54 S6        29.87F
WACO           MOSUNNY   88  66  48 S8        29.89F
WICHITA FALLS  NOT AVBL
$$
...OTHER LOCATIONS IN NEW MEXICO...

CITY           SKY/WX    TMP DP  RH WIND       PRES   REMARKS
ALAMOGORDO     PTSUNNY   79  39  24 W13G18    29.91F
ALBUQUERQUE    SUNNY     68  25  19 VRB7      29.97F
CANNON AFB     MOSUNNY   75  57  53 SW10G17   29.93
CLOVIS         MOSUNNY   75  60  59 SW9       29.93F
HOLLOMAN AFB   MOSUNNY   85  41  21 SE6       29.91F
ROSWELL        MOSUNNY   80  56  43 S12G22    29.87F
RUIDOSO        SUNNY     68  37  32 S22G33    30.04F
SANTA FE       SUNNY     65  28  24 SW9G16    29.99F
TRUTH OR CONSE SUNNY     76  36  23 CALM      29.90F
TUCUMCARI      MOSUNNY   78  56  46 SW10G21   29.86F
$$




USA.gov is the U.S. government's official web portal to all federal, state and local government web resources and services.